Weather History for KHTS - August, 2013

Change the Weather History Date:

Monday, August 5, 2013

  Actual Average Record
Temperature  
Mean Temperature 70 °F 76 °F  
Max Temperature 82 °F 86 °F 101 °F (1930)
Min Temperature 57 °F 65 °F 50 °F (1951)
Degree Days  
Heating Degree Days 0 0  
Month to date heating degree days 0 0  
Since 1 June heating degree days 0 12  
Since 1 July heating degree days 0 0  
Cooling Degree Days 5 11  
Month to date cooling degree days 36 55  
Year to date cooling degree days 800 725  
Since 1 June cooling degree days 630 612  
Growing Degree Days 20 (Base 50)    
Moisture  
Dew Point 57 °F    
Average Humidity 68    
Maximum Humidity 100    
Minimum Humidity 36    
Precipitation  
Precipitation 0.00 in 0.12 in 1.70 in (1995)
Month to date precipitation 0.03 0.65  
Year to date precipitation 27.27 27.16  
Snow  
Snow 0.00 in - - ()
Month to date snowfall 0.0  
Since 1 September snowfall 12.4  
Snow Depth 0.00 in    
Sea Level Pressure  
Sea Level Pressure 30.06 in    
Wind  
Wind Speed 2 mph (NE)    
Max Wind Speed 8 mph    
Max Gust Speed 12 mph    
Visibility 10 miles    
Events      
T = Trace of Precipitation, MM = Missing Value Source: NWS Daily Summary

Daily Weather History Graph

Daily Weather History Graph

Search for Another Location

Airport or City:

Trip Planner

Search our weather history database for the weather conditions in past years. The results will help you decide how hot, cold, wet, or windy it might be!

Date:

Astronomy

Aug. 05, 2013 Rise Set
Actual Time 6:36 AM EDT 8:35 PM EDT
Civil Twilight 6:07 AM EDT 9:04 PM EDT
Nautical Twilight 5:31 AM EDT 9:39 PM EDT
Astronomical Twilight 4:53 AM EDT 10:17 PM EDT
Moon 5:29 AM EDT (8/5) 7:35 PM EDT (8/5)
Length of Visible Light 14h 57m
Length of Day
13h 59m
Waning Crescent, 1% of the Moon is Illuminated
Aug 5
Waning Crescent
Aug 6
New
Aug 14
First Quarter
Aug 20
Full
Aug 28
Last Quarter

Hourly Weather History & Observations

Time (EDT) Temp. Heat Index Dew Point Humidity Pressure Visibility Wind Dir Wind Speed Gust Speed Precip Events Conditions
12:51 AM 61.0 °F - 57.0 °F 87% 30.11 in 10.0 mi Calm Calm - N/A   Partly Cloudy
1:51 AM 61.0 °F - 57.9 °F 90% 30.10 in 10.0 mi Calm Calm - N/A   Clear
2:51 AM 60.1 °F - 57.0 °F 90% 30.10 in 10.0 mi Calm Calm - N/A   Clear
3:51 AM 57.9 °F - 57.0 °F 97% 30.09 in 10.0 mi Calm Calm - N/A   Clear
4:51 AM 59.0 °F - 57.0 °F 93% 30.09 in 10.0 mi Calm Calm - N/A   Clear
5:51 AM 57.9 °F - 55.9 °F 93% 30.09 in 10.0 mi Calm Calm - N/A   Clear
6:51 AM 57.0 °F - 55.0 °F 93% 30.10 in 7.0 mi Calm Calm - N/A   Clear
7:51 AM 60.1 °F - 57.0 °F 90% 30.11 in 6.0 mi Calm Calm - N/A   Clear
8:51 AM 64.0 °F - 59.0 °F 84% 30.12 in 10.0 mi North 3.5 mph - N/A   Clear
9:51 AM 69.1 °F - 60.1 °F 73% 30.12 in 10.0 mi Calm Calm - N/A   Clear
10:51 AM 73.0 °F - 60.1 °F 64% 30.11 in 10.0 mi Variable 3.5 mph - N/A   Clear
11:51 AM 75.9 °F - 57.9 °F 54% 30.10 in 10.0 mi Variable 3.5 mph - N/A   Clear
12:51 PM 75.0 °F - 54.0 °F 48% 30.08 in 10.0 mi NNE 6.9 mph - N/A   Scattered Clouds
1:51 PM 78.1 °F - 53.1 °F 42% 30.06 in 10.0 mi East 6.9 mph - N/A   Partly Cloudy
2:51 PM 80.1 °F 79.9 °F 53.1 °F 39% 30.04 in 10.0 mi ENE 5.8 mph - N/A   Partly Cloudy
3:51 PM 80.1 °F - 52.0 °F 38% 30.03 in 10.0 mi Calm Calm - N/A   Partly Cloudy
4:51 PM 78.1 °F - 55.0 °F 45% 30.02 in 10.0 mi Calm Calm - N/A   Clear
5:51 PM 78.1 °F - 55.0 °F 45% 30.03 in 10.0 mi NNE 4.6 mph - N/A   Clear
6:51 PM 75.9 °F - 55.9 °F 50% 30.02 in 10.0 mi NE 3.5 mph - N/A   Clear
7:51 PM 73.9 °F - 55.9 °F 53% 30.01 in 10.0 mi ENE 4.6 mph - N/A   Clear
8:51 PM 71.1 °F - 59.0 °F 66% 30.00 in 10.0 mi East 4.6 mph - N/A   Partly Cloudy
9:51 PM 69.1 °F - 55.9 °F 63% 30.00 in 10.0 mi ENE 4.6 mph - N/A   Clear
10:51 PM 68.0 °F - 57.9 °F 70% 29.99 in 10.0 mi East 3.5 mph - N/A   Overcast
11:51 PM 66.9 °F - 57.0 °F 70% 29.98 in 10.0 mi Calm Calm - N/A   Overcast